Regional Weather Roundup
Issued by NWS Charleston, SC

Current Version | Previous Version | Graphics & Text | Print | Product List | Glossary On
Versions: 1 2 3 4 5 6 7 8 9 10 11 12 13 14 15 16 17 18 19 20 21 22 23 24 25 26 27 28 29 30 31 32 33 34 35 36 37 38 39 40 41 42 43 44 45 46 47 48 49 50
508 ASUS42 KCHS 120928 RWRCHS REGIONAL WEATHER ROUNDUP NATIONAL WEATHER SERVICE CHARLESTON SC 400 AM EST FRI FEB 12 2016 NOTE: "FAIR" INDICATES FEW OR NO CLOUDS BELOW 12,000 FEET WITH NO SIGNIFICANT WEATHER AND/OR OBSTRUCTIONS TO VISIBILITY. NOT ALL STATIONS ARE QUALITY CONTROLLED BY THE NATIONAL WEATHER SERVICE. USE DATA WITH CAUTION...ESPECIALLY DEWPOINT OBSERVATIONS. SCZ027-030-031-034>040-042>050-121000- ...SOUTHEAST SOUTH CAROLINA... CITY SKY/WX TMP DP RH WIND PRES REMARKS N CHARLESTON MOCLDY 46 38 73 NE6 30.16F WATERFRONT PRK N/A 48 43 82 NE5 30.01F MOUNT PLEASANT PTSUNNY 46 37 71 CALM 30.17S JOHNS ISLAND FAIR 46 41 81 CALM 30.16S PINOPOLIS N/A 45 36 70 E5 30.08F MONCKS CORNER CLOUDY 43 30 61 E3 30.16F SUMMERVILLE FAIR 43 36 75 CALM 30.18S BEAUFORT MCAS CLEAR 43 40 89 CALM 30.16F BEAUFORT ARPT FAIR 43 43 100 CALM 30.15F HILTON HEAD IS PTCLDY 45 45 100 CALM 30.16F WALTERBORO SUNNY 43 36 75 CALM 30.16F ALLENDALE FAIR 39 36 87 CALM 30.14F ...SOUTHERN MIDLANDS AND PEE DEE... CITY SKY/WX TMP DP RH WIND PRES REMARKS GEORGETOWN CLOUDY 46 36 66 E6 30.19F KINGSTREE CLOUDY 41 32 70 CALM 30.19F ORANGEBURG CLOUDY 44 35 70 NE3 30.17S BARNWELL PTSUNNY 43 36 75 CALM 30.16F AIKEN FAIR 34 30 86 CALM 30.18F MANNING CLOUDY 41 32 70 CALM 30.19R COLUMBIA MOCLDY 35 29 78 CALM 30.17F SUMTER CLOUDY 34 28 80 NE6 30.17S WCI 29 FLORENCE CLEAR 32 28 85 NE8 30.21F WCI 25 MYRTLE BEACH CLOUDY 48 30 49 E10 30.22F N MYRTLE BEACH CLOUDY 41 33 73 NE7 30.21S $$ GAZ063-065-086>088-099>101-113>116-118-119-134>141-150-121000- ...SOUTHEAST GEORGIA... CITY SKY/WX TMP DP RH WIND PRES REMARKS SAVANNAH ARPT PTCLDY 44 41 89 CALM 30.15F HUNTER AAF CLOUDY 41 41 100 S5 30.12F FORT STEWART CLOUDY 44 42 90 CALM 30.13F STATESBORO MOCLDY 40 40 99 CALM 30.14F SYLVANIA MOSUNNY 37 37 99 CALM 30.15F CLAXTON FAIR 39 39 100 CALM 30.15S ...CSRA...CENTRAL AND FAR SOUTHEAST GEORGIA... CITY SKY/WX TMP DP RH WIND PRES REMARKS THOMSON MOCLDY 36 35 96 CALM 30.19S AUGUSTA-BUSH CLOUDY 40 35 83 CALM 30.16F AUGUSTA-DANIEL MOCLDY 45 30 55 CALM 30.15F SWAINSBORO PTSUNNY 41 36 81 CALM 30.14S VIDALIA CLOUDY 45 41 87 CALM 30.13F EASTMAN CLOUDY 47 39 73 CALM 30.15S HAZLEHURST CLOUDY 57 54 90 SW5 30.12F ALMA CLOUDY 55 52 89 S5 30.14F WAYCROSS CLOUDY 56 56 99 SW3 30.16S JESUP CLOUDY 55 54 94 SW5 30.15F BAXLEY CLOUDY 55 55 100 CALM 30.13F BRUNSWICK MOCLDY 54 52 94 SW8 30.17F SAINT SIMONS CLOUDY 52 51 97 SW6 30.17F $$ SCZ027-028-034-036>038-045-046-048>050-GAZ119-141-121000- ...LAKE AND SUPPLEMENTAL COASTAL OBSERVATIONS... STATION/POSITION TIME TEMP WIND PRES WAVE SWELL AIR SEA DIR/SP/G HT/PER HT/PER/DIR (UTC) (F) (DEG/KT/KT) (MB) (FT/S) (FT/S/D) WINYAH BAY 0845 48 80/ 7 1021.0S LAKE MURRAY 0800 36 CALM / 3 1021.7S ACE BASIN NERRS 0800 44 60/ 1 1021.0F FORT PULASKI 0900 48 50 190/ 3/ 4 1021.0F SAPELO ISLAND 0900 48 190/ 5 1021.0F $$ ANZ835-935-AMZ111-154-330-350-352-354-370-450-454-472-121000- ...C-MAN AND BUOY OBSERVATIONS... STATION/POSITION TIME TEMP WIND PRES WAVE SWELL AIR SEA DIR/SP/G HT/PER HT/PER/DIR (UTC) (F) (DEG/KT/KT) (MB) (FT/S) (FT/S/D) BUOY 41004 0850 61 69 220/ 8/ 16 1021.1F 1/ 4 2/ 4 BUOY 41008 0850 54 52 220/ 12/ 12 1021.9F 3/ 6 2/160/ 6 FOLLY BEACH CMAN 0900 49 50/ 12/ 14 1021.1F CAPERS NEARSHORE 0808 50 60/ 12/ 16 1021.6F FRIPP NEARSHORE 0800 52 250/ 6/ 8 1020.8F STATION/POSITION TIME TEMP WIND PRES WAVE SWELL AIR SEA DIR/SP/G HT/PER HT/PER/DIR (UTC) (F) (DEG/KT/KT) (MB) (FT/S) (FT/S/D) 5E ST. MARYS GA 0851 56 N/A 2/ 5 FRYING PAN BUOY 0900 51 57 60/ 10/ 12 1023.4R BUOY 41025 0850 40 70 10/ 10/ 14 1025.8F 3/ 8 2/ 70/ 8 CAPE LOOKOUT NC NOT AVBL BUOY 41002 0850 56 68 20/ 8/ 10 N/A 6/ 7 5/330/ 7 BUOY 41010 0820 67 72 1024.5F ST AUGUSTINE FL 0900 51 56 210/ 5/ 6 1024.0F $$

USA.gov is the U.S. government's official web portal to all federal, state and local government web resources and services.